This is the latest recevied weather packets stored in our database for station/object KO4APQ. If no packets are shown the sender has not sent any weather packets the latest 10 day(s).
| Time | Temp. | Humidity | Pressure | Rain* | Wind** | Luminosity | Snow |
|---|---|---|---|---|---|---|---|
| 1778097621 | 24.44° C | 67% | 1013.8 hPa | 0 mm | - | 194 W/m² | - |
| 1778097318 | 24.44° C | 66% | 1014 hPa | 0 mm | - | 267 W/m² | - |
| 1778097014 | 24.44° C | 66% | 1014.2 hPa | 0 mm | - | 252 W/m² | - |
| 1778096712 | 23.89° C | 67% | 1014.1 hPa | 0 mm | - | 343 W/m² | - |
| 1778096408 | 23.89° C | 68% | 1014.3 hPa | 0 mm | - | 315 W/m² | - |
| 1778096106 | 23.89° C | 68% | 1014.4 hPa | 0 mm | - | 197 W/m² | - |
| 1778095802 | 23.89° C | 68% | 1014.4 hPa | 0 mm | - | 165 W/m² | - |
| 1778095500 | 24.44° C | 68% | 1014.4 hPa | 0 mm | - | 234 W/m² | - |
| 1778095195 | 24.44° C | 67% | 1014.4 hPa | 0 mm | - | 340 W/m² | - |
| 1778094893 | 25° C | 64% | 1014.4 hPa | 0 mm | - | 339 W/m² | - |
| 1778094589 | 24.44° C | 66% | 1014.6 hPa | 0 mm | - | 675 W/m² | - |
| 1778094286 | 24.44° C | 69% | 1014.8 hPa | 0 mm | - | 505 W/m² | - |
| 1778093982 | 23.89° C | 69% | 1015.1 hPa | 0 mm | - | 439 W/m² | - |
| 1778093680 | 23.89° C | 69% | 1015 hPa | 0 mm | - | 430 W/m² | - |
| 1778093376 | 23.89° C | 69% | 1015.1 hPa | 0 mm | - | 390 W/m² | - |
| 1778093073 | 23.89° C | 68% | 1015.2 hPa | 0 mm | - | 345 W/m² | - |
| 1778092771 | 23.89° C | 69% | 1015.1 hPa | 0 mm | - | 459 W/m² | - |
| 1778092466 | 23.89° C | 68% | 1015.2 hPa | 0 mm | - | 359 W/m² | - |
| 1778092163 | 23.89° C | 72% | 1015.3 hPa | 0 mm | - | 508 W/m² | - |
| 1778091861 | 23.89° C | 71% | 1015.1 hPa | 0 mm | - | 301 W/m² | - |
| 1778091558 | 23.89° C | 71% | 1015.2 hPa | 0 mm | - | 356 W/m² | - |
| 1778091256 | 23.33° C | 72% | 1015.2 hPa | 0 mm | - | 688 W/m² | - |
| 1778090952 | 23.33° C | 72% | 1015.1 hPa | 0 mm | - | 357 W/m² | - |
| 1778090648 | 23.33° C | 71% | 1015 hPa | 0 mm | - | 291 W/m² | - |
| 1778090345 | 23.33° C | 70% | 1015.2 hPa | 0 mm | - | 719 W/m² | - |
* Rain latest hour (hover to see other rain measurements)
** Current wind speed in m/s (hover to see current wind gust speed)